Change the Weather History Date:

Saturday, January 11, 2014

  Actual Average Record
Temperature  
Mean Temperature 50 °F -  
Max Temperature 55 °F 35 °F 56 °F (1975)
Min Temperature 46 °F 23 °F 5 °F (1968)
Degree Days  
Heating Degree Days 14    
Moisture  
Dew Point 48 °F    
Average Humidity 91    
Maximum Humidity 94    
Minimum Humidity 87    
Precipitation  
Precipitation 0.52 in - - ()
Sea Level Pressure  
Sea Level Pressure 29.79 in    
Wind  
Wind Speed 16 mph (South)    
Max Wind Speed 30 mph    
Max Gust Speed 46 mph    
Visibility 6 miles    
Events Thunderstorm    
Averages and records for this station are not official NWS values.
T = Trace of Precipitation, MM = Missing Value Source: NWS Daily Summary

Daily Weather History Graph

Daily Weather History Graph

Search for Another Location

Airport or City:

Trip Planner

Search our weather history database for the weather conditions in past years. The results will help you decide how hot, cold, wet, or windy it might be!

Date:

Astronomy

Jan. 11, 2014 Rise Set
Actual Time 7:10 AM EST 4:37 PM EST
Civil Twilight 6:40 AM EST 5:08 PM EST
Nautical Twilight 6:06 AM EST 5:42 PM EST
Astronomical Twilight 5:32 AM EST 6:15 PM EST
Moon 1:20 PM EST (1/11) 3:12 AM EST (1/11)
Length of Visible Light 10h 28m
Length of Day
9h 27m
Waxing Gibbous, 83% of the Moon is Illuminated
Jan 11
Waxing Gibbous
Jan 15
Full
Jan 24
Last Quarter
Jan 30
New
Feb 6
First Quarter

Hourly Weather History & Observations

Time (EST) Temp. Windchill Dew Point Humidity Pressure Visibility Wind Dir Wind Speed Gust Speed Precip Events Conditions
12:15 AM 46.4 °F 41.9 °F 44.6 °F 93% 30.25 in 10.0 mi South 9.2 mph - N/A   Overcast
12:35 AM 46.4 °F 41.5 °F 44.6 °F 93% 30.24 in 10.0 mi South 10.4 mph - N/A   Overcast
12:55 AM 46.4 °F 41.9 °F 44.6 °F 93% 30.23 in 10.0 mi South 9.2 mph - N/A   Overcast
1:15 AM 46.4 °F 41.5 °F 44.6 °F 93% 30.22 in 9.0 mi South 10.4 mph - N/A   Overcast
1:35 AM 46.4 °F 41.5 °F 44.6 °F 93% 30.22 in 8.0 mi South 10.4 mph - N/A   Overcast
1:55 AM 46.4 °F 41.5 °F 44.6 °F 93% 30.20 in 10.0 mi South 10.4 mph - N/A   Overcast
2:15 AM 46.4 °F 41.5 °F 44.6 °F 93% 30.20 in 10.0 mi South 10.4 mph - N/A   Overcast
2:35 AM 46.4 °F 41.5 °F 44.6 °F 93% 30.20 in 10.0 mi South 10.4 mph 16.1 mph N/A   Overcast
2:55 AM 46.4 °F 41.5 °F 44.6 °F 93% 30.19 in 10.0 mi South 10.4 mph 17.3 mph N/A   Mostly Cloudy
3:15 AM 46.4 °F 41.9 °F 44.6 °F 93% 30.17 in 10.0 mi South 9.2 mph - N/A   Overcast
3:35 AM 46.4 °F 41.1 °F 44.6 °F 93% 30.15 in 10.0 mi South 11.5 mph - N/A   Overcast
3:55 AM 48.2 °F - 44.6 °F 87% 30.16 in 10.0 mi South 10.4 mph - N/A   Overcast
4:15 AM 48.2 °F - 44.6 °F 87% 30.15 in 10.0 mi South 10.4 mph - N/A   Overcast
4:35 AM 48.2 °F - 44.6 °F 87% 30.13 in 10.0 mi South 10.4 mph - N/A   Overcast
4:55 AM 48.2 °F - 46.4 °F 93% 30.11 in 10.0 mi SSE 12.7 mph - N/A   Overcast
5:15 AM 48.2 °F - 46.4 °F 93% 30.11 in 10.0 mi South 16.1 mph - N/A   Overcast
5:35 AM 48.2 °F - 44.6 °F 87% 30.10 in 10.0 mi South 12.7 mph - N/A   Overcast
5:55 AM 48.2 °F - 46.4 °F 93% 30.09 in 10.0 mi South 12.7 mph - N/A   Overcast
6:15 AM 48.2 °F - 46.4 °F 93% 30.08 in 10.0 mi South 15.0 mph - N/A   Overcast
6:35 AM 48.2 °F - 46.4 °F 93% 30.06 in 10.0 mi South 15.0 mph 19.6 mph N/A   Overcast
6:55 AM 50.0 °F - 46.4 °F 87% 30.05 in 10.0 mi South 15.0 mph - N/A   Overcast
7:15 AM 50.0 °F - 46.4 °F 87% 30.03 in 9.0 mi South 18.4 mph - N/A   Overcast
7:35 AM 50.0 °F - 46.4 °F 87% 30.02 in 9.0 mi SSE 17.3 mph - N/A   Overcast
7:55 AM 50.0 °F - 48.2 °F 94% 30.00 in 8.0 mi SSE 16.1 mph - N/A   Overcast
8:15 AM 51.8 °F - 48.2 °F 88% 29.99 in 8.0 mi South 17.3 mph 21.9 mph N/A   Overcast
8:35 AM 51.8 °F - 48.2 °F 88% 29.98 in 8.0 mi South 21.9 mph 28.8 mph N/A   Overcast
8:55 AM 51.8 °F - 48.2 °F 88% 29.96 in 7.0 mi South 18.4 mph 25.3 mph N/A   Overcast
9:15 AM 51.8 °F - 48.2 °F 88% 29.95 in 6.0 mi South 17.3 mph - N/A   Overcast
9:35 AM 51.8 °F - 48.2 °F 88% 29.95 in 5.0 mi South 20.7 mph 26.5 mph N/A   Overcast
9:55 AM 51.8 °F - 50.0 °F 94% 29.93 in 6.0 mi South 16.1 mph 21.9 mph N/A   Mostly Cloudy
10:15 AM 53.6 °F - 50.0 °F 88% 29.90 in 7.0 mi South 17.3 mph 26.5 mph N/A   Mostly Cloudy
10:35 AM 53.6 °F - 50.0 °F 88% 29.87 in 7.0 mi South 25.3 mph 34.5 mph N/A   Overcast
10:55 AM 53.6 °F - 50.0 °F 88% 29.85 in 7.0 mi South 28.8 mph 38.0 mph N/A   Overcast
11:15 AM 53.6 °F - 51.8 °F 94% 29.84 in 7.0 mi South 26.5 mph 36.8 mph N/A   Mostly Cloudy
11:35 AM 55.4 °F - 51.8 °F 88% 29.83 in 6.0 mi South 29.9 mph 39.1 mph N/A   Partly Cloudy
11:55 AM 55.4 °F - 51.8 °F 88% 29.81 in 6.0 mi South 24.2 mph 33.4 mph N/A   Mostly Cloudy
12:15 PM 53.6 °F - 50.0 °F 88% 29.77 in 5.0 mi South 24.2 mph 32.2 mph N/A   Overcast
12:35 PM 53.6 °F - 50.0 °F 88% 29.74 in 5.0 mi South 24.2 mph 31.1 mph N/A   Mostly Cloudy
12:55 PM 53.6 °F - 50.0 °F 88% 29.73 in 5.0 mi South 25.3 mph 33.4 mph N/A   Overcast
1:15 PM 53.6 °F - 51.8 °F 94% 29.71 in 3.0 mi South 24.2 mph 31.1 mph N/A   Overcast
1:35 PM 53.6 °F - 51.8 °F 94% 29.69 in 4.0 mi South 26.5 mph 33.4 mph N/A   Overcast
1:55 PM 55.4 °F - 51.8 °F 88% 29.67 in 4.0 mi South 27.6 mph 35.7 mph N/A   Overcast
2:15 PM 55.4 °F - 51.8 °F 88% 29.65 in 3.0 mi South 21.9 mph 32.2 mph N/A   Overcast
2:35 PM 53.6 °F - 51.8 °F 94% 29.63 in 1.2 mi South 20.7 mph 28.8 mph 0.01 in   Overcast
2:55 PM 53.6 °F - 50.0 °F 88% 29.61 in 0.5 mi South 25.3 mph 29.9 mph 0.01 in   Overcast
3:15 PM 53.6 °F - 51.8 °F 94% 29.60 in 0.2 mi South 25.3 mph 34.5 mph N/A   Overcast
3:35 PM 53.6 °F - 51.8 °F 94% 29.59 in 0.2 mi South 24.2 mph 33.4 mph 0.01 in Thunderstorm Overcast
3:55 PM 53.6 °F - 51.8 °F 94% 29.57 in 0.2 mi South 23.0 mph 31.1 mph 0.02 in   Overcast
4:15 PM 55.4 °F - 51.8 °F 88% 29.55 in 0.5 mi South 27.6 mph 33.4 mph 0.03 in Thunderstorm Thunderstorm
4:35 PM 53.6 °F - 51.8 °F 94% 29.54 in 0.2 mi SSW 25.3 mph 31.1 mph 0.03 in   Overcast
4:55 PM 53.6 °F - 51.8 °F 94% 29.53 in 0.2 mi SSW 23.0 mph 34.5 mph 0.03 in   Overcast
5:15 PM 53.6 °F - 51.8 °F 94% 29.51 in 0.5 mi SSW 23.0 mph 31.1 mph N/A   Overcast
5:35 PM 53.6 °F - 51.8 °F 94% 29.48 in 0.5 mi South 23.0 mph 29.9 mph N/A   Overcast
5:55 PM 53.6 °F - 51.8 °F 94% 29.47 in 1.0 mi SSW 21.9 mph 36.8 mph 0.06 in   Overcast
6:15 PM 53.6 °F - 51.8 °F 94% 29.44 in 0.5 mi South 26.5 mph 34.5 mph N/A   Overcast
6:35 PM 53.6 °F - 51.8 °F 94% 29.42 in 0.8 mi South 24.2 mph 31.1 mph 0.08 in   Overcast
6:55 PM 55.4 °F - 51.8 °F 88% 29.39 in 0.5 mi South 28.8 mph 36.8 mph 0.10 in   Overcast
7:15 PM 55.4 °F - 53.6 °F 94% 29.37 in 1.2 mi South 29.9 mph 38.0 mph 0.03 in   Overcast
7:35 PM 55.4 °F - 53.6 °F 94% 29.44 in 1.2 mi WSW 29.9 mph 46.0 mph 0.25 in   Overcast
7:55 PM 53.6 °F - 51.8 °F 94% 29.43 in 4.0 mi WSW 16.1 mph 33.4 mph 0.25 in   Overcast
8:15 PM 51.8 °F - 48.2 °F 88% 29.45 in 3.0 mi SW 20.7 mph 26.5 mph 0.01 in   Overcast
8:35 PM 48.2 °F - 46.4 °F 93% 29.44 in 5.0 mi SW 20.7 mph 28.8 mph 0.02 in   Overcast
8:55 PM 48.2 °F - 46.4 °F 93% 29.44 in 3.0 mi SW 18.4 mph 24.2 mph 0.03 in   Overcast
9:15 PM 48.2 °F - 46.4 °F 93% 29.44 in 1.0 mi SW 19.6 mph - N/A   Overcast
9:35 PM 48.2 °F - 46.4 °F 93% 29.45 in 1.2 mi SW 18.4 mph 24.2 mph 0.01 in   Overcast
9:55 PM 50.0 °F - 48.2 °F 94% 29.41 in 1.0 mi SSW 13.8 mph - 0.02 in   Overcast
10:15 PM 48.2 °F - 46.4 °F 93% 29.39 in 0.5 mi South 15.0 mph - N/A   Overcast
10:35 PM 50.0 °F - 48.2 °F 94% 29.36 in 1.5 mi South 18.4 mph - N/A   Overcast
10:55 PM 50.0 °F - 46.4 °F 87% 29.37 in 5.0 mi South 18.4 mph 24.2 mph N/A   Overcast
11:15 PM 50.0 °F - 46.4 °F 87% 29.37 in 5.0 mi South 17.3 mph 23.0 mph N/A   Overcast
11:35 PM 48.2 °F - 46.4 °F 93% 29.36 in 5.0 mi South 17.3 mph - N/A   Mostly Cloudy
11:55 PM 48.2 °F - 46.4 °F 93% 29.37 in 6.0 mi SSW 17.3 mph 20.7 mph N/A   Mostly Cloudy